Zurück zum Katalog

KUIPER-00547

AktivKommunikationVLEO
NORAD 69615·PAYLOAD·🇺🇸 United States

Gestartet Jun 17, 2026 von Guiana Space Centre

Loading…

Nächste Überflüge (nächste 24 Stunden)

TLE

AktuellSource: CelesTrak SupGP

Epoche: Sep 14, 2026, 22:09 UTC

1 69615C 26140Z   26257.92355324  .00002908  00000+0  79638-4 0  2577
2 69615  51.8819 324.3857 0009527 142.4116 260.6299 15.36672323    18

Verfolge KUIPER-00547 in Echtzeit mit AllMySat

Download on the App Store